Location: Seddon's Corner
(50.0622°N, 96.2921°W)
Time: 07:52:41
(UTC-05:00)

OTV 5 (USA 277) - Visible Passes

Search period start: 17 October 2019 00:00
Search period end: 27 October 2019 00:00
Orbit: 310 x 324 km, 54.5° (Epoch: 08 October)

Date Brightness Start Highest point End Pass type
(mag) Time Alt. Az. Time Alt. Az. Time Alt. Az.
17 Oct ? 05:25:13 21° E 05:25:13 21° E 05:26:23 10° E visible
17 Oct ? 06:56:07 15° W 06:57:58 32° SW 07:00:29 10° SSE visible
18 Oct ? 05:39:38 28° ESE 05:39:38 28° ESE 05:41:05 10° ESE visible
18 Oct ? 07:10:34 10° W 07:12:19 16° SW 07:14:04 10° S visible
19 Oct ? 05:54:09 25° SSE 05:54:09 25° SSE 05:55:31 10° SE visible
20 Oct ? 06:08:49 15° S 06:08:49 15° S 06:09:30 10° SSE visible
